Flag for Honduras Weather past 2 weeks in San Pedro Sula, Honduras

Now
93 °F

Passing clouds.


Feels Like: 105 °F
Forecast: N/A
Wind: 18 mph from North

Location: La Mesa San Pedro Sula

Current Time: Aug 4, 2015 at 4:07:18 PM

Latest Report: Aug 4, 2015 at 3:00 PM


Visibility: N/A

Pressure: 29.86 "Hg

Humidity: 56%

Dew point: 75 °F

Location of San Pedro SulaLocation

Historic Weather in San Pedro Sula — Graph

°F

San Pedro Sula temperature yesterday

Maximum temperature yesterday: 95 °F (at 1:00 PM)
Minimum temperature yesterday: 75 °F (at 6:00 AM)
Average temperature yesterday: 86 °F

Past Weeks' High & Low Weather Summary

 TemperatureHumidityPressure
High95 °F (Jul 22, 2:00 PM)100% (Jul 21, 12:00 AM)30.04 "Hg (Jul 21, 12:00 AM)
Low73 °F (Jul 25, 12:00 AM)47% (Aug 4, 1:00 PM)29.80 "Hg (Aug 2, 2:00 PM)
Average85 °F81%29.92 "Hg
* Reported Jul 20 3:00 PM — Aug 4 3:00 PM, San Pedro Sula, Weather by CustomWeather, © 2015

Note: Actual official high and low records may vary slightly from our data, if they occured in-between our weather recording intervals... More about our weather records

Advertising

San Pedro Sula weather history for previous 24 hours

 ConditionsComfort  
Time TempWeatherWind HumidityBarometerVisibility
3:00 PM
Tue, Aug 4
93 °FPassing clouds.18 mph56%29.86 "HgN/A
2:00 PM95 °FPassing clouds.15 mph53%29.86 "HgN/A
1:00 PM95 °FPassing clouds.8 mph47%29.86 "HgN/A
12:00 PM93 °FPassing clouds.No wind49%29.92 "HgN/A
11:00 AM91 °FPassing clouds.5 mph56%29.92 "HgN/A
10:00 AM88 °FPassing clouds.No wind70%29.92 "HgN/A
9:00 AM86 °FPassing clouds.5 mph84%29.95 "HgN/A
8:00 AM82 °FScattered clouds.6 mph94%29.95 "HgN/A
7:00 AM77 °FScattered clouds.5 mph100%29.92 "HgN/A
6:00 AM75 °FScattered clouds.3 mph100%29.92 "HgN/A
1:00 AM81 °FPassing clouds.5 mph100%29.89 "HgN/A
12:00 AM81 °FPassing clouds.No wind94%29.92 "HgN/A
11:00 PM
Mon, Aug 3
82 °FPassing clouds.6 mph94%29.92 "HgN/A
10:00 PM82 °FPassing clouds.8 mph94%29.92 "HgN/A
9:00 PM84 °FPassing clouds.8 mph89%29.92 "HgN/A
8:00 PM84 °FPassing clouds.9 mph89%29.89 "HgN/A
7:00 PM84 °FPassing clouds.12 mph84%29.86 "HgN/A
6:00 PM86 °FScattered clouds.16 mph75%29.83 "HgN/A
5:00 PM90 °FPassing clouds.14 mph67%29.80 "HgN/A
4:00 PM91 °FPassing clouds.16 mph67%29.80 "HgN/A
Weather by CustomWeather, © 2015

See weather overviewHow to use our weather pages